EWG188 EDXW-LIEO

Flight info

Callsign EWG188
Flight time N/A
Altitude 37000
Route OLDIP1B OLDIP DCT GIKOG DCT BASUM/N0452F360 DCT TIVUN/N0454F370 DCT EDISA Y852 NATOR N850 ODINA DCT TIDKA DCT OLBEK
Aircraft A319/M-SDE3FGHIRWY/LB1

Departure

Time N/A
Airport Westerland Sylt Airport (EDXW)

Arrival

Time 2026-05-07 15:26
Airport Olbia Costa Smeralda Airport (LIEO)
Time Latitude Longitude Altitude Speed Heading
2026-05-07 14:40 45.69442 8.76184 36974 ft 463 kts 176°
2026-05-07 14:41 45.63084 8.77671 36960 ft 462 kts 176°
2026-05-07 14:41 45.56730 8.79157 36969 ft 462 kts 176°
2026-05-07 14:42 45.50386 8.80648 36978 ft 462 kts 176°
2026-05-07 14:42 45.44041 8.82130 36982 ft 462 kts 176°
2026-05-07 14:43 45.37694 8.83606 36998 ft 461 kts 176°
2026-05-07 14:43 45.31402 8.85051 37003 ft 461 kts 176°
2026-05-07 14:44 45.25068 8.86508 37003 ft 460 kts 176°
2026-05-07 14:44 45.18748 8.87976 36972 ft 460 kts 176°
2026-05-07 14:45 45.12434 8.89442 36976 ft 459 kts 176°
2026-05-07 14:45 45.06123 8.90885 36980 ft 459 kts 176°
2026-05-07 14:46 44.99824 8.92323 36978 ft 458 kts 176°
2026-05-07 14:46 44.93540 8.93763 36985 ft 457 kts 176°
2026-05-07 14:47 44.87262 8.95191 36990 ft 457 kts 176°
2026-05-07 14:47 44.80994 8.96620 36979 ft 456 kts 176°
2026-05-07 14:48 44.74782 8.98041 36987 ft 455 kts 176°
2026-05-07 14:48 44.68528 8.99453 37004 ft 455 kts 176°
2026-05-07 14:49 44.62278 9.00859 37003 ft 455 kts 176°
2026-05-07 14:49 44.56036 9.02266 37016 ft 454 kts 176°
2026-05-07 14:50 44.49802 9.03666 37024 ft 453 kts 176°
2026-05-07 14:50 44.43576 9.05067 37026 ft 453 kts 176°
2026-05-07 14:51 44.37357 9.06464 37025 ft 453 kts 176°
2026-05-07 14:51 44.31165 9.07858 37021 ft 453 kts 176°
2026-05-07 14:52 44.24943 9.09252 36976 ft 452 kts 177°
2026-05-07 14:52 44.18735 9.10639 37002 ft 451 kts 177°
2026-05-07 14:53 44.12533 9.12008 37002 ft 451 kts 177°
2026-05-07 14:53 44.06331 9.13381 37002 ft 451 kts 177°
2026-05-07 14:54 44.00140 9.14763 37001 ft 450 kts 177°
2026-05-07 14:54 43.93956 9.16120 37002 ft 450 kts 177°
2026-05-07 14:55 43.87815 9.17467 37002 ft 450 kts 177°
2026-05-07 14:55 43.81640 9.18831 37002 ft 449 kts 177°
2026-05-07 14:56 43.75471 9.20296 37000 ft 450 kts 176°
2026-05-07 14:56 43.70354 9.21714 37003 ft 451 kts 175°
2026-05-07 14:57 43.64229 9.23463 36989 ft 447 kts 175°
2026-05-07 14:57 43.58152 9.25132 37005 ft 444 kts 176°
2026-05-07 14:58 43.52089 9.26742 37006 ft 444 kts 176°
2026-05-07 14:58 43.46016 9.28353 36997 ft 444 kts 176°
2026-05-07 14:59 43.39962 9.29989 37000 ft 443 kts 176°
2026-05-07 14:59 43.36939 9.30809 36857 ft 443 kts 176°
2026-05-07 14:59 43.33912 9.31624 36564 ft 443 kts 176°
2026-05-07 15:00 43.30889 9.32434 36256 ft 442 kts 176°
2026-05-07 15:00 43.27862 9.33243 35954 ft 443 kts 176°
2026-05-07 15:00 43.24881 9.34037 35630 ft 443 kts 176°
2026-05-07 15:00 43.21858 9.34838 35334 ft 442 kts 177°
2026-05-07 15:01 43.18837 9.35639 35043 ft 442 kts 177°
2026-05-07 15:01 43.15815 9.36440 34751 ft 443 kts 177°
2026-05-07 15:01 43.12787 9.37243 34463 ft 443 kts 177°
2026-05-07 15:01 43.09754 9.38049 34167 ft 443 kts 177°
2026-05-07 15:02 43.06728 9.38851 33878 ft 444 kts 177°
2026-05-07 15:02 43.03689 9.39654 33536 ft 444 kts 177°
2026-05-07 15:02 43.00653 9.40453 33213 ft 445 kts 177°
2026-05-07 15:02 42.97614 9.41253 32887 ft 445 kts 177°
2026-05-07 15:03 42.94568 9.42057 32568 ft 446 kts 177°
2026-05-07 15:03 42.91511 9.42866 32255 ft 448 kts 177°
2026-05-07 15:03 42.88445 9.43674 31938 ft 450 kts 177°
2026-05-07 15:03 42.85412 9.44472 31645 ft 451 kts 177°
2026-05-07 15:04 42.82323 9.45283 31315 ft 452 kts 178°
2026-05-07 15:04 42.79231 9.46094 31003 ft 454 kts 178°
2026-05-07 15:04 42.76122 9.46908 30706 ft 455 kts 177°
2026-05-07 15:04 42.73009 9.47723 30409 ft 457 kts 177°
2026-05-07 15:05 42.69882 9.48543 30114 ft 458 kts 177°
2026-05-07 15:05 42.66743 9.49364 29770 ft 460 kts 177°
2026-05-07 15:05 42.63600 9.50186 29441 ft 461 kts 177°
2026-05-07 15:05 42.60440 9.51011 29083 ft 463 kts 177°
2026-05-07 15:06 42.57271 9.51840 28758 ft 465 kts 177°
2026-05-07 15:06 42.54085 9.52674 28426 ft 467 kts 177°
2026-05-07 15:06 42.50893 9.53506 28104 ft 468 kts 176°
2026-05-07 15:06 42.47691 9.54339 27788 ft 469 kts 176°
2026-05-07 15:07 42.44478 9.55174 27469 ft 470 kts 176°
2026-05-07 15:07 42.41266 9.56005 27167 ft 471 kts 176°
2026-05-07 15:07 42.38039 9.56841 26862 ft 472 kts 176°
2026-05-07 15:07 42.34849 9.57666 26564 ft 473 kts 176°
2026-05-07 15:08 42.31610 9.58499 26259 ft 474 kts 175°
2026-05-07 15:08 42.28362 9.59335 25958 ft 475 kts 175°
2026-05-07 15:08 42.25103 9.60178 25665 ft 476 kts 175°
2026-05-07 15:08 42.21844 9.61019 25368 ft 477 kts 175°
2026-05-07 15:09 42.18574 9.61861 25071 ft 479 kts 175°
2026-05-07 15:09 42.15301 9.62706 24786 ft 480 kts 175°
2026-05-07 15:09 42.12014 9.63553 24500 ft 481 kts 174°
2026-05-07 15:09 42.08723 9.64403 24220 ft 482 kts 174°
2026-05-07 15:10 42.05425 9.65253 23943 ft 483 kts 174°
2026-05-07 15:10 42.02119 9.66102 23663 ft 484 kts 174°
2026-05-07 15:10 41.98807 9.66950 23343 ft 485 kts 174°
2026-05-07 15:10 41.95505 9.67794 23009 ft 476 kts 174°
2026-05-07 15:11 41.92316 9.68613 22684 ft 458 kts 174°
2026-05-07 15:11 41.89236 9.69411 22364 ft 445 kts 174°
2026-05-07 15:11 41.86213 9.70186 22047 ft 440 kts 174°
2026-05-07 15:11 41.83219 9.70946 21734 ft 437 kts 174°
2026-05-07 15:12 41.80243 9.71696 21423 ft 434 kts 174°
2026-05-07 15:12 41.77285 9.72440 21103 ft 432 kts 174°
2026-05-07 15:12 41.74333 9.73144 20797 ft 428 kts 178°
2026-05-07 15:12 41.71416 9.73013 20497 ft 415 kts 195°
2026-05-07 15:13 41.68629 9.72094 20207 ft 411 kts 198°
2026-05-07 15:13 41.65870 9.71106 19913 ft 409 kts 199°
2026-05-07 15:13 41.63127 9.70110 19621 ft 407 kts 199°
2026-05-07 15:13 41.60404 9.69111 19329 ft 405 kts 199°
2026-05-07 15:14 41.57730 9.68118 19036 ft 403 kts 199°
2026-05-07 15:14 41.55037 9.67111 18754 ft 400 kts 199°
2026-05-07 15:14 41.52359 9.66102 18474 ft 398 kts 199°
2026-05-07 15:14 41.49702 9.65089 18194 ft 396 kts 199°
2026-05-07 15:15 41.47061 9.64074 17952 ft 394 kts 199°
2026-05-07 15:15 41.44427 9.63039 17977 ft 394 kts 201°
2026-05-07 15:15 41.41925 9.61590 17933 ft 392 kts 207°
2026-05-07 15:15 41.39465 9.60029 17290 ft 390 kts 207°
2026-05-07 15:16 41.37033 9.58473 16642 ft 386 kts 207°
2026-05-07 15:16 41.34630 9.56912 16008 ft 382 kts 207°
2026-05-07 15:16 41.32251 9.55354 15383 ft 378 kts 207°
2026-05-07 15:16 41.29910 9.53811 14775 ft 374 kts 207°
2026-05-07 15:17 41.27628 9.52300 14179 ft 369 kts 207°
2026-05-07 15:17 41.25342 9.50778 13569 ft 365 kts 207°
2026-05-07 15:17 41.23089 9.49269 12911 ft 361 kts 207°
2026-05-07 15:17 41.20922 9.47630 12266 ft 357 kts 213°
2026-05-07 15:18 41.18848 9.45847 11642 ft 354 kts 214°
2026-05-07 15:18 41.16793 9.44078 11025 ft 350 kts 213°
2026-05-07 15:18 41.14774 9.42304 10427 ft 346 kts 213°
2026-05-07 15:18 41.12780 9.40533 9816 ft 343 kts 213°
2026-05-07 15:19 41.10747 9.38908 9222 ft 339 kts 209°
2026-05-07 15:19 41.08699 9.37398 8699 ft 336 kts 208°
2026-05-07 15:19 41.06659 9.35903 8168 ft 334 kts 208°
2026-05-07 15:19 41.04637 9.34416 7685 ft 332 kts 208°
2026-05-07 15:20 41.02620 9.32932 7181 ft 331 kts 208°
2026-05-07 15:20 41.00605 9.31467 6694 ft 330 kts 206°
2026-05-07 15:20 40.98418 9.30593 6163 ft 329 kts 190°
2026-05-07 15:20 40.96183 9.30088 5544 ft 333 kts 188°
2026-05-07 15:21 40.93884 9.29563 4923 ft 338 kts 188°
2026-05-07 15:21 40.91567 9.29023 4280 ft 338 kts 188°
2026-05-07 15:21 40.89267 9.28446 3882 ft 332 kts 188°
2026-05-07 15:21 40.87038 9.27894 3786 ft 318 kts 189°
2026-05-07 15:22 40.84903 9.27403 3712 ft 303 kts 181°
2026-05-07 15:22 40.82875 9.27764 3591 ft 290 kts 161°
2026-05-07 15:22 40.81066 9.28783 3479 ft 276 kts 141°
2026-05-07 15:22 40.79957 9.30721 3372 ft 262 kts 107°
2026-05-07 15:23 40.79936 9.33031 3255 ft 251 kts 70°
2026-05-07 15:23 40.80880 9.34911 3160 ft 245 kts 49°
2026-05-07 15:23 40.81927 9.36642 2943 ft 240 kts 54°
2026-05-07 15:23 40.82897 9.38461 2636 ft 244 kts 56°
2026-05-07 15:24 40.83853 9.40291 2253 ft 244 kts 56°
2026-05-07 15:24 40.84797 9.42093 1885 ft 232 kts 55°
2026-05-07 15:24 40.85682 9.43779 1534 ft 215 kts 54°
2026-05-07 15:24 40.86496 9.45331 1256 ft 195 kts 54°
2026-05-07 15:25 40.87232 9.46734 939 ft 177 kts 55°
2026-05-07 15:25 40.87887 9.47982 683 ft 156 kts 55°
2026-05-07 15:25 40.88476 9.49104 432 ft 141 kts 56°
2026-05-07 15:25 40.89022 9.50139 209 ft 135 kts 57°
2026-05-07 15:26 40.89536 9.51129 37 ft 121 kts 57°
2026-05-07 15:26 40.89894 9.51811 33 ft 49 kts 56°
2026-05-07 15:26 40.90092 9.52029 34 ft 35 kts 11°
2026-05-07 15:26 40.90176 9.51908 34 ft 20 kts 276°
2026-05-07 15:27 40.90243 9.51731 34 ft 18 kts 322°